Buckeye, AZ

11:17 PM MST on May 25, 2017 (GMT -0700)
Buckeye Municipal

Weather History for KBXK - March, 2014

Change the Weather History Date:

Sunday, March 23, 2014

  Actual Average (KGYR) Record (KGYR)
Temperature  
Mean Temperature 65 °F -  
Max Temperature 82 °F 80 °F 87 °F (1998)
Min Temperature 48 °F 51 °F 44 °F (2006)
Growing Degree Days 15 (Base 50)    
Moisture  
Dew Point 28 °F    
Average Humidity 27    
Maximum Humidity 50    
Minimum Humidity 12    
Precipitation  
Precipitation 0.00 in - - ()
Sea Level Pressure  
Sea Level Pressure 30.00 in    
Wind  
Wind Speed 5 mph (ESE)    
Max Wind Speed 9 mph    
Max Gust Speed -    
Visibility 10 miles    
Events      
Averages and records for this station are not official NWS values.
T = Trace of Precipitation, MM = Missing Value Source: NWS Daily Summary

Daily Weather History Graph

Daily Weather History Graph

Search for Another Location

Airport or City:

Trip Planner

Search our weather history database for the weather conditions in past years. The results will help you decide how hot, cold, wet, or windy it might be!

Date:

Astronomy

Mar. 23, 2014 Rise Set
Actual Time 6:30 AM MST 6:44 PM MST
Civil Twilight 6:05 AM MST 7:09 PM MST
Nautical Twilight 5:36 AM MST 7:38 PM MST
Astronomical Twilight 5:07 AM MST 8:07 PM MST
Moon 12:51 AM MST (3/23) 11:29 AM MST (3/23)
Length of Visible Light 13h 03m
Length of Day
12h 14m
Waning Gibbous, 53% of the Moon is Illuminated
Mar 23
Waning Gibbous
Mar 23
Last Quarter
Mar 30
New
Apr 7
First Quarter
Apr 15
Full

Hourly Weather History & Observations

Time (MST) Temp. Dew Point Humidity Pressure Visibility Wind Dir Wind Speed Gust Speed Precip Events Conditions
12:15 AM 57.2 °F 26.6 °F 31% 29.98 in 10.0 mi NNE 8.1 mph - N/A   Clear
12:35 AM 55.4 °F 28.4 °F 36% 29.98 in 10.0 mi North 5.8 mph - N/A   Clear
12:55 AM 55.4 °F 26.6 °F 33% 29.99 in 10.0 mi North 6.9 mph - N/A   Clear
1:15 AM 55.4 °F 26.6 °F 33% 29.98 in 10.0 mi NNE 6.9 mph - N/A   Clear
1:35 AM 53.6 °F 32.0 °F 44% 29.99 in 10.0 mi Calm Calm - N/A   Clear
1:55 AM 51.8 °F 33.8 °F 50% 29.99 in 10.0 mi Calm Calm - N/A   Clear
2:15 AM 51.8 °F 32.0 °F 47% 29.99 in 10.0 mi ENE 3.5 mph - N/A   Clear
2:35 AM 53.6 °F 32.0 °F 44% 29.99 in 10.0 mi East 6.9 mph - N/A   Clear
2:55 AM 57.2 °F 28.4 °F 33% 29.99 in 10.0 mi East 9.2 mph - N/A   Clear
3:15 AM 57.2 °F 28.4 °F 33% 29.99 in 10.0 mi ENE 5.8 mph - N/A   Clear
3:35 AM 57.2 °F 28.4 °F 33% 29.99 in 10.0 mi East 8.1 mph - N/A   Clear
3:55 AM 59.0 °F 28.4 °F 31% 29.99 in 10.0 mi East 6.9 mph - N/A   Clear
4:15 AM 50.0 °F 32.0 °F 50% 30.00 in 10.0 mi Calm Calm - N/A   Clear
4:35 AM 48.2 °F 28.4 °F 46% 30.00 in 10.0 mi WNW 3.5 mph - N/A   Clear
4:55 AM 48.2 °F 28.4 °F 46% 30.01 in 10.0 mi NW 4.6 mph - N/A   Clear
5:15 AM 48.2 °F 28.4 °F 46% 30.01 in 10.0 mi NNW 4.6 mph - N/A   Clear
5:35 AM 48.2 °F 28.4 °F 46% 30.01 in 9.0 mi NNW 5.8 mph - N/A   Clear
5:55 AM 48.2 °F 26.6 °F 43% 30.02 in 10.0 mi NNE 3.5 mph - N/A   Clear
6:15 AM 50.0 °F 28.4 °F 43% 30.02 in 10.0 mi North 4.6 mph - N/A   Clear
6:35 AM 48.2 °F 28.4 °F 46% 30.03 in 10.0 mi Calm Calm - N/A   Clear
6:55 AM 48.2 °F 28.4 °F 46% 30.05 in 10.0 mi Calm Calm - N/A   Clear
7:15 AM 48.2 °F 28.4 °F 46% 30.05 in 8.0 mi NNW 3.5 mph - N/A   Clear
7:35 AM 51.8 °F 28.4 °F 41% 30.06 in 8.0 mi NW 3.5 mph - N/A   Clear
7:55 AM 55.4 °F 30.2 °F 38% 30.06 in 9.0 mi North 3.5 mph - N/A   Clear
8:15 AM 59.0 °F 30.2 °F 34% 30.07 in 10.0 mi Calm Calm - N/A   Clear
8:35 AM 62.6 °F 30.2 °F 30% 30.07 in 10.0 mi NNW 3.5 mph - N/A   Clear
8:55 AM 64.4 °F 30.2 °F 28% 30.07 in 10.0 mi NNW 3.5 mph - N/A   Clear
9:15 AM 66.2 °F 28.4 °F 24% 30.07 in 10.0 mi Calm Calm - N/A   Clear
9:35 AM 68.0 °F 30.2 °F 24% 30.08 in 10.0 mi SSE 3.5 mph - N/A   Clear
9:55 AM 69.8 °F 35.6 °F 28% 30.08 in 10.0 mi SSE 3.5 mph - N/A   Clear
10:15 AM 71.6 °F 35.6 °F 27% 30.08 in 10.0 mi SE 5.8 mph - N/A   Clear
10:35 AM 71.6 °F 33.8 °F 25% 30.08 in 10.0 mi SE 8.1 mph - N/A   Clear
10:55 AM 73.4 °F 33.8 °F 23% 30.08 in 10.0 mi SE 8.1 mph - N/A   Clear
11:15 AM 73.4 °F 33.8 °F 23% 30.07 in 10.0 mi ESE 5.8 mph - N/A   Clear
11:35 AM 75.2 °F 32.0 °F 21% 30.07 in 10.0 mi ESE 5.8 mph - N/A   Clear
11:55 AM 75.2 °F 32.0 °F 21% 30.06 in 10.0 mi SE 4.6 mph - N/A   Clear
12:15 PM 77.0 °F 32.0 °F 19% 30.05 in 10.0 mi SSE 8.1 mph - N/A   Clear
12:35 PM 77.0 °F 32.0 °F 19% 30.04 in 10.0 mi SE 3.5 mph - N/A   Clear
12:55 PM 77.0 °F 30.2 °F 18% 30.03 in 10.0 mi South 5.8 mph - N/A   Clear
1:15 PM 77.0 °F 30.2 °F 18% 30.02 in 10.0 mi SE 6.9 mph - N/A   Clear
1:35 PM 78.8 °F 28.4 °F 16% 30.01 in 10.0 mi SW 4.6 mph - N/A   Clear
1:55 PM 80.6 °F 30.2 °F 16% 30.00 in 10.0 mi Calm Calm - N/A   Clear
2:15 PM 80.6 °F 28.4 °F 15% 29.99 in 10.0 mi Calm Calm - N/A   Clear
2:35 PM 80.6 °F 26.6 °F 14% 29.98 in 10.0 mi Calm Calm - N/A   Clear
2:55 PM 80.6 °F 26.6 °F 14% 29.97 in 10.0 mi SSW 5.8 mph - N/A   Clear
3:15 PM 82.4 °F 24.8 °F 12% 29.97 in 10.0 mi Calm Calm - N/A   Clear
3:35 PM 80.6 °F 24.8 °F 13% 29.96 in 10.0 mi ESE 4.6 mph - N/A   Clear
3:55 PM 80.6 °F 24.8 °F 13% 29.95 in 10.0 mi SE 4.6 mph - N/A   Clear
4:15 PM 82.4 °F 26.6 °F 13% 29.95 in 10.0 mi South 4.6 mph - N/A   Clear
4:35 PM 80.6 °F 24.8 °F 13% 29.95 in 10.0 mi South 3.5 mph - N/A   Clear
4:55 PM 80.6 °F 26.6 °F 14% 29.95 in 10.0 mi SSW 4.6 mph - N/A   Clear
5:15 PM 80.6 °F 26.6 °F 14% 29.95 in 10.0 mi South 5.8 mph - N/A   Clear
5:35 PM 80.6 °F 26.6 °F 14% 29.95 in 10.0 mi South 3.5 mph - N/A   Clear
5:55 PM 77.0 °F 28.4 °F 17% 29.94 in 9.0 mi SSW 4.6 mph - N/A   Clear
6:15 PM 77.0 °F 28.4 °F 17% 29.95 in 7.0 mi South 4.6 mph - N/A   Clear
6:35 PM 75.2 °F 32.0 °F 21% 29.95 in 5.0 mi South 4.6 mph - N/A   Clear
6:55 PM 75.2 °F 28.4 °F 18% 29.95 in 8.0 mi South 4.6 mph - N/A   Clear
7:15 PM 73.4 °F 28.4 °F 19% 29.95 in 10.0 mi South 5.8 mph - N/A   Scattered Clouds
7:35 PM 68.0 °F 28.4 °F 23% 29.95 in 8.0 mi SSW 3.5 mph - N/A   Partly Cloudy
7:55 PM 71.6 °F 26.6 °F 19% 29.96 in 10.0 mi South 3.5 mph - N/A   Scattered Clouds
8:15 PM 69.8 °F 24.8 °F 18% 29.96 in 10.0 mi Calm Calm - N/A   Scattered Clouds
8:35 PM 69.8 °F 23.0 °F 17% 29.97 in 10.0 mi SW 3.5 mph - N/A   Partly Cloudy
8:55 PM 66.2 °F 26.6 °F 23% 29.97 in 10.0 mi NW 3.5 mph - N/A   Partly Cloudy
9:15 PM 64.4 °F 24.8 °F 22% 29.97 in 10.0 mi North 5.8 mph - N/A   Mostly Cloudy
9:35 PM 64.4 °F 24.8 °F 22% 29.97 in 10.0 mi NNE 6.9 mph - N/A   Mostly Cloudy
9:55 PM 64.4 °F 24.8 °F 22% 29.97 in 10.0 mi North 6.9 mph - N/A   Overcast
10:15 PM 62.6 °F 24.8 °F 24% 29.98 in 10.0 mi NNE 5.8 mph - N/A   Mostly Cloudy
10:35 PM 62.6 °F 24.8 °F 24% 29.98 in 10.0 mi North 5.8 mph - N/A   Mostly Cloudy
10:55 PM 60.8 °F 24.8 °F 25% 29.98 in 10.0 mi North 8.1 mph - N/A   Mostly Cloudy
11:15 PM 59.0 °F 24.8 °F 27% 29.98 in 10.0 mi NNW 8.1 mph - N/A   Scattered Clouds
11:35 PM 59.0 °F 24.8 °F 27% 29.98 in 10.0 mi NW 3.5 mph - N/A   Mostly Cloudy
11:55 PM 59.0 °F 24.8 °F 27% 29.98 in 10.0 mi Calm Calm - N/A   Scattered Clouds